Starlink 31381

operational
NORAD ID: 59469 Int'l Des: 2024-068 Owner: SPXS Country: US Constellation: starlink
LEOCIRCULAR

Über Starlink 31381

Beschreibung wird geladen...

Live-Position

3D-Globus wird geladen...

Nächste Überflüge

Höhenverlauf

Altitude vs Time

uPlot chart will show altitude changes over time

Zweizeiliger Elementsatz

1 59469U 24068Q 25304.63043637 .00010946 00000-0 40658-3 0 9995
2 59469 43.0027 40.0130 0001099 289.4079 70.6654 15.27591033 88827
Epoch: 31. Okt. 2025 • Age: 29 hours

Aktueller Status

Höhe 484.7 km
Geschwindigkeit 7.62 km/s
Subsatellitenpunkt -9.99°S, 120.75°W
Startdatum 10. Apr. 2024
Alter 1.5 years
Typ internet

Technische Details

Klassifizierung Payload
Masse 730.00 kg
Trockenmasse 700.00 kg
Gesamtmasse 730.00 kg
Länge 0.30 m
Durchmesser 4.10 m
Spannweite 29.00 m
Form Box + pan
Hersteller SPXS
Bus-Typ Starlink V2M
Phasenstatus In Orbit
Besitzer/Staat SPXS/US

Große Konstellationen

Loading constellations...